Dati Storici

Data ora Umidita' aria (%) Temperatura aria (°C) Rad globale (W/m²) Gonioanemometro (°) Tacoanemometro (m/s) Pioggia (mm)
12-06-2020 20:10 71.8 % 22.205 -63.695 1.7 0 0
12-06-2020 20:00 73.9 % 22.137 -71.326 2.812 0 0
12-06-2020 19:50 75.3 % 22.25 -66.294 1.069 0 0
12-06-2020 19:40 74.9 % 22.31 -67.432 1.191 0 0
12-06-2020 19:30 73.4 % 22.46 -60.738 2.456 0 0
12-06-2020 19:20 72.3 % 22.472 -67.934 1.124 0 0
12-06-2020 19:10 70.7 % 22.494 -66.404 0.079 0 0
12-06-2020 19:00 70.9 % 22.429 -73.876 2.093 0 0
12-06-2020 18:50 69.8 % 22.437 -71.958 2.027 0 0
12-06-2020 18:40 69.4 % 22.627 -69.761 1.521 0 0
12-06-2020 18:30 69.6 % 23.052 -72.005 1.49 0 0
12-06-2020 18:20 65.7 % 23.004 -69.072 3.178 0 0
12-06-2020 18:10 68.4 % 23.309 -73.722 2.133 0 0
12-06-2020 18:00 69.8 % 23.305 -69.931 0.26 0 0
12-06-2020 17:50 70.4 % 23.173 -78.353 0.841 0 0
12-06-2020 17:40 69.6 % 23.864 -70.472 1.959 0 0
12-06-2020 17:30 70.3 % 22.892 -72.397 1.776 0 0
12-06-2020 17:20 69.6 % 23.338 -73.939 1.21 0 0
12-06-2020 17:10 67.8 % 22.456 -75.152 2.079 0 0
12-06-2020 17:00 66 % 22.626 -75.859 1.344 0 0

I dati sono presentati in modo automatico a scopo informativo. In seguito a verifica i dati possono subire modifiche o essere invalidati e non riportati negli archivi definitivi.